MDT,Max TemperatureF,Mean TemperatureF,Min TemperatureF,Max Dew PointF,MeanDew PointF,Min DewpointF,Max Humidity, Mean Humidity, Min Humidity, Max Sea Level PressureIn, Mean Sea Level PressureIn, Min Sea Level PressureIn, Max VisibilityMiles, Mean VisibilityMiles, Min VisibilityMiles, Max Wind SpeedMPH, Mean Wind SpeedMPH, Max Gust SpeedMPH,PrecipitationIn, CloudCover, Events, WindDirDegrees
2014-3-1,-2,-5,-9,-10,-13,-17,79,72,64,30.24,29.98,29.81,10,4,1,26,11,33,0.03,8,Snow,199
2014-3-2,40,18,-4,29,9,-10,83,69,54,30.20,30.06,29.91,10,10,8,14,2,17,T,7,Snow,144
2014-3-3,42,34,25,32,29,22,92,73,54,29.92,29.84,29.79,10,7,0,23,5,33,0.14,7,Fog-Rain-Snow-Thunderstorm,355
2014-3-4,42,31,19,28,23,17,100,71,41,30.08,29.98,29.87,10,10,4,15,5,21,0.00,5,,243
2014-3-5,45,34,22,32,25,18,89,67,45,30.02,29.92,29.76,10,10,8,16,5,23,T,5,Rain,226
2014-3-6,44,37,30,34,31,24,96,79,62,29.94,29.77,29.60,10,8,1,24,6,34,0.21,7,Rain-Snow,348
2014-3-7,41,34,27,27,25,22,85,68,50,30.31,30.14,29.95,10,10,8,21,5,26,T,6,Snow,312
2014-3-8,47,30,12,25,20,9,88,66,43,30.42,30.27,30.09,10,10,10,12,3,13,0.00,1,,124
2014-3-9,49,41,32,33,28,20,76,59,41,30.09,29.99,29.89,10,10,10,16,7,23,0.00,6,,230
2014-3-10,40,35,30,35,32,25,100,85,69,30.00,29.80,29.72,10,4,0,21,6,26,0.35,8,Fog-Rain-Snow,326
2014-3-11,38,30,21,28,24,18,92,70,48,30.47,30.23,29.95,10,7,1,15,8,19,0.02,5,Snow,304
2014-3-12,44,29,14,22,17,10,92,63,33,30.52,30.40,30.26,10,10,10,9,3,11,0.00,0,,18
2014-3-13,46,30,14,20,16,10,88,60,31,30.22,30.08,30.01,10,10,10,14,4,21,0.00,0,,304
2014-3-14,45,31,17,31,23,13,84,63,41,30.11,30.00,29.92,10,8,0,32,8,43,0.01,5,Fog-Rain-Snow,285
2014-3-15,43,34,25,24,18,14,81,57,33,30.41,30.31,30.08,10,10,10,21,8,29,0.00,4,,307
2014-3-16,55,39,23,22,17,10,81,50,18,30.40,30.10,29.71,10,10,10,18,6,26,0.00,0,,251
2014-3-17,47,36,25,29,22,19,78,61,44,30.02,29.70,29.40,10,6,2,31,13,42,T,7,Snow,318
2014-3-18,35,26,17,22,14,9,88,63,38,30.22,30.14,30.05,10,10,9,21,7,26,0.00,4,,314
2014-3-19,42,29,15,18,12,9,88,58,27,30.22,30.08,29.93,10,10,10,15,5,21,0.00,2,,221
2014-3-20,37,29,20,23,12,3,72,51,29,30.22,30.00,29.81,10,10,10,33,14,43,T,3,,307
2014-3-21,31,21,10,13,9,4,83,57,31,30.35,30.28,30.22,10,10,10,17,5,20,0.00,1,,151
2014-3-22,34,23,11,17,11,7,84,60,36,30.41,30.29,30.14,10,9,3,10,4,12,T,5,Snow,349
2014-3-23,38,30,21,21,15,8,77,53,29,30.25,30.17,30.10,10,10,6,22,9,29,T,5,Snow,325
2014-3-24,44,30,15,22,14,10,80,54,27,30.37,30.29,30.18,10,10,10,10,4,12,0.00,4,,129
2014-3-25,58,40,22,22,19,13,84,51,17,30.17,29.84,29.55,10,10,10,21,4,24,0.00,1,,199
2014-3-26,41,34,27,32,27,19,92,68,44,29.60,29.52,29.46,10,8,0,22,6,29,0.03,5,Fog-Snow,291
2014-3-27,40,32,23,28,24,19,92,70,48,29.84,29.66,29.58,10,8,1,21,6,27,0.01,6,Snow,266
2014-3-28,46,37,27,26,19,14,69,50,30,30.01,29.93,29.85,10,10,10,18,6,24,0.00,5,,241
2014-3-29,42,37,32,32,29,24,82,68,53,29.86,29.80,29.73,10,8,0,25,5,33,0.16,6,Fog-Snow,306
2014-3-30,40,31,22,30,26,18,100,70,40,29.97,29.80,29.73,10,4,0,20,7,25,0.24,7,Fog-Snow,322
2014-3-31,38,30,21,28,24,19,100,76,52,30.07,29.95,29.83,10,4,0,13,3,14,0.05,7,Fog-Snow,340